Temperature
21 21 20 20 19 19 18 18 17 17 16 15 15 14 14 14 14 13 13 13 13 13 13 13 13 13 13 13 14 14 14 14 14 15 15 15 16 16 16 16 16 16 17
21 20 20 20 19 19 18 18 17 17 16 15 15 14 14 14 13 13 13 13 13 13 13 13 13 13 13 13 13 13 14 14 14 14 14 15 15 16 16 16 16 16 16
21 20 20 20 19 19 18 18 17 17 16 15 15 14 14 14 13 13 13 13 13 13 13 13 13 13 13 13 13 13 13 13 14 14 14 14 15 15 16 16 16 16 16
21 21 20 20 19 19 18 18 17 17 16 15 15 14 14 14 13 13 13 13 13 13 13 13 13 13 13 13 13 13 13 13 13 14 14 14 14 15 15 16 16 16 16
21 21 21 20 20 19 18 18 17 17 16 15 15 14 14 14 13 13 13 13 13 13 13 13 13 13 13 13 13 13 13 13 13 13 14 14 14 14 15 15 15 16 16
21 21 21 20 19 19 18 18 17 17 16 15 15 14 14 14 13 13 13 13 13 13 13 13 13 13 13 13 13 13 13 13 13 13 13 14 14 14 14 15 15 15 15
22 21 20 20 19 19 18 18 17 17 16 15 15 14 14 14 13 13 13 13 13 13 13 13 13 13 13 13 13 13 13 13 13 13 13 13 14 14 14 14 14 15 15
22 21 21 20 20 19 18 18 17 17 16 15 15 14 14 14 14 13 13 13 13 13 13 13 13 13 13 13 13 13 13 13 13 13 13 13 13 14 14 14 14 14 14
22 22 21 21 20 19 19 18 18 17 16 15 15 14 14 14 14 13 13 13 13 13 13 13 13 13 13 13 13 13 13 13 13 13 13 13 13 14 14 14 14 14 14
22 22 21 21 20 20 19 18 18 17 16 15 15 14 14 14 14 13 13 13 13 13 13 13 13 13 13 13 13 13 13 13 13 13 13 13 13 13 13 14 14 14 14
22 22 22 21 20 20 19 18 17 17 16 16 15 14 14 14 14 13 13 13 13 13 13 13 13 13 13 13 13 13 13 13 13 13 13 13 13 13 13 13 13 14 14
23 22 22 21 20 19 19 18 17 17 16 16 15 15 14 14 14 14 13 13 13 13 13 13 13 13 13 13 13 13 13 13 13 13 13 13 13 13 13 13 13 13 13
22 22 21 21 20 20 19 18 18 17 16 16 15 15 14 14 14 14 13 13 13 13 13 13 13 13 13 13 13 13 13 13 13 13 13 13 13 13 13 13 13 13 13
22 22 21 21 20 20 19 19 18 17 16 16 15 15 15 14 14 14 13 13 13 13 13 13 13 13 13 13 13 13 13 13 13 13 13 13 13 13 13 13 13 13 13
21 21 21 21 20 20 19 19 18 17 17 16 16 15 15 14 14 14 14 13 13 13 13 13 13 13 13 13 13 13 13 13 13 13 13 13 13 13 13 13 13 13 13
21 21 21 20 20 20 19 19 18 18 17 16 16 16 15 15 14 14 14 14 13 13 13 13 13 13 13 13 13 13 13 13 13 13 13 13 13 13 13 13 13 13 13
20 20 20 20 20 20 20 19 19 18 17 17 16 16 15 15 15 14 14 14 14 14 14 13 13 13 13 13 13 13 13 13 13 13 13 13 13 13 13 13 13 13 13
20 20 20 20 20 20 20 19 19 18 18 17 17 16 16 15 15 15 14 14 14 14 14 14 14 13 13 13 13 13 13 13 13 13 13 13 13 13 13 13 13 13 13
20 20 20 20 20 20 20 19 19 18 18 17 17 17 16 16 15 15 15 14 14 14 14 14 14 14 13 13 13 13 13 13 13 13 13 13 13 13 13 13 13 13 12
19 20 20 20 20 20 19 19 19 18 18 18 18 17 16 16 16 15 15 15 14 14 14 14 14 13 13 13 13 13 13 13 13 13 12 12 12 12 12 12 12 12 12
19 19 19 19 19 19 19 18 18 18 18 18 18 17 17 16 16 16 15 15 14 14 14 14 14 13 13 13 13 13 13 13 12 12 12 12 12 12 12 12 12 12 12
18 18 18 18 18 19 18 18 18 18 18 18 17 17 17 16 16 16 15 15 14 14 14 14 14 13 13 13 13 13 13 12 12 12 12 12 12 12 12 12 12 11 11
16 16 17 17 17 18 18 18 18 18 17 17 17 17 17 16 16 16 15 15 15 14 14 14 14 13 13 13 13 13 12 12 12 12 12 12 11 11 11 11 11 11 11
15 15 15 16 16 16 17 17 17 17 17 17 17 17 16 16 16 16 15 15 15 14 14 14 14 13 13 13 13 12 12 12 12 12 11 11 11 11 11 11 11 10 10
14 14 14 14 15 15 16 16 16 16 16 16 16 16 16 16 16 16 16 15 15 15 15 14 14 14 13 13 13 12 12 12 11 11 11 10 10 10 10 10 10 10 10
13 13 13 13 14 14 15 15 15 15 15 16 16 16 16 16 16 15 15 15 15 15 14 14 14 13 13 13 12 12 12 11 11 11 11 10 10 10 10 9 9 9 9
Wind_Speed
9 11 11 11 10 8 8 7 7 5 4 2 2 1 1 1 1 2 1 1 1 2 1 2 2 1 1 1 2 1 1 1 1 1 2 3 2 1 1 2 2 2 3
8 9 9 10 10 9 8 8 8 6 5 3 2 2 2 1 2 2 2 1 1 2 1 1 1 1 1 2 2 1 0 1 1 2 2 2 4 2 1 1 2 3 2
14 12 10 10 9 10 10 9 8 7 6 4 2 2 2 2 2 2 2 2 2 2 2 1 1 1 1 1 1 0 1 0 1 1 3 2 1 2 3 1 1 2 2
12 12 11 10 10 10 9 9 8 7 6 5 4 3 2 1 2 2 2 3 3 2 2 1 1 1 1 1 1 1 2 2 0 1 0 1 2 1 2 3 1 1 2
13 13 13 12 10 9 9 8 8 7 6 5 5 4 2 2 2 2 2 2 3 3 2 1 1 1 1 1 1 0 2 2 2 1 0 1 1 1 2 1 2 2 1
12 12 10 9 8 8 8 8 8 7 6 5 5 5 4 3 1 1 1 2 2 3 3 2 2 1 1 1 0 1 2 2 2 2 2 2 1 1 2 1 1 1 1
11 11 11 10 10 10 9 8 9 7 6 5 4 5 5 4 3 2 2 1 1 2 3 2 2 1 1 1 0 1 1 1 2 2 2 2 2 2 2 2 1 0 1
10 12 13 12 11 11 10 9 9 7 6 6 5 4 4 3 2 2 2 2 2 3 3 2 2 2 1 0 1 1 0 1 1 2 2 1 1 2 2 3 3 1 1
11 12 12 12 12 11 11 11 10 8 7 7 5 4 4 3 3 2 2 2 2 2 2 1 1 1 1 1 1 1 1 1 1 1 2 1 1 1 1 2 3 4 2
10 10 11 12 12 11 10 10 10 9 7 7 6 5 4 4 3 2 1 1 2 1 1 1 1 1 1 1 1 1 1 1 0 1 2 1 1 1 1 1 2 3 3
11 11 11 11 10 9 9 9 9 8 7 7 6 5 4 4 3 2 2 2 1 1 1 1 1 1 1 1 1 1 1 2 1 1 1 1 1 1 1 1 2 2 3
10 10 10 10 9 10 9 10 9 9 8 8 6 6 5 4 4 3 3 2 1 1 0 0 1 1 1 1 2 1 1 1 1 1 1 0 1 1 1 2 2 2 2
7 7 8 10 11 11 10 10 10 10 8 8 7 6 5 5 4 4 3 2 1 1 0 1 1 0 1 1 1 1 1 1 1 1 2 1 3 2 2 2 2 1 1
5 7 8 10 10 11 11 11 10 10 9 8 8 7 7 6 6 4 4 3 2 2 1 1 1 1 1 1 1 2 2 2 1 1 1 2 3 3 2 2 2 2 2
2 5 8 9 9 10 10 10 10 10 10 9 9 9 8 6 6 5 4 3 3 3 2 2 1 0 1 1 2 2 2 2 2 2 1 1 2 3 3 2 2 3 2
3 5 6 7 9 11 11 11 11 11 10 11 11 9 8 7 6 6 5 4 3 3 2 2 2 1 1 2 4 3 2 2 2 1 1 1 1 1 2 3 3 4 4
4 4 6 8 9 10 11 13 13 11 11 11 10 9 9 8 8 7 6 5 5 3 3 3 2 2 2 2 4 4 3 2 1 0 0 1 1 1 1 2 3 3 1
5 5 5 6 7 8 9 10 10 11 12 11 11 10 10 9 8 7 7 6 5 4 4 4 4 2 3 3 4 4 3 2 1 0 1 1 1 1 2 3 3 2 2
6 6 5 5 5 6 7 8 10 11 12 12 12 12 12 11 9 9 8 6 5 5 4 4 4 4 3 4 4 5 3 2 1 1 0 1 0 0 3 4 3 3 3
7 6 5 3 3 4 5 7 10 11 13 14 14 13 12 12 12 11 9 6 6 6 5 4 4 5 4 4 5 6 4 3 1 1 1 1 1 2 4 4 4 3 1
8 7 6 4 5 3 3 7 8 12 13 12 11 11 12 13 12 10 7 6 6 6 5 5 4 4 4 4 6 7 5 5 3 1 0 1 2 3 5 5 3 3 2
9 8 7 7 6 3 3 6 9 10 8 8 10 12 12 12 10 9 8 7 8 7 6 4 3 2 2 3 5 7 7 7 5 3 2 1 3 5 5 4 4 6 5
9 8 7 8 7 5 4 8 9 7 6 7 10 11 12 11 10 11 10 7 7 7 6 5 5 4 2 2 4 6 7 8 4 3 4 4 5 6 5 6 7 6 4
9 8 9 9 9 8 7 8 7 6 6 8 9 9 10 10 9 9 9 9 9 8 7 7 6 5 4 3 3 3 4 5 5 4 5 7 8 6 6 6 5 4 4
9 8 8 9 11 10 9 8 6 5 7 8 8 8 9 10 9 8 7 9 9 10 10 8 8 8 7 7 9 7 5 5 6 6 4 3 3 4 4 4 4 4 4
9 10 10 10 11 11 11 9 7 6 8 7 7 7 7 7 8 8 4 2 4 9 12 12 11 7 9 11 11 10 10 10 11 7 5 4 4 4 4 4 3 3 3
Wind_Direction
176 165 159 154 148 150 147 148 147 153 134 112 111 95 314 300 304 289 297 330 334 342 352 322 327 341 349 310 312 317 331 319 351 40 352 330 292 250 217 196 192 211 206
164 166 161 159 159 161 158 155 156 157 153 155 172 188 201 244 258 290 322 331 324 332 344 338 321 318 327 341 345 38 49 343 52 100 69 357 351 330 269 197 198 210 202
176 173 169 171 166 167 168 163 163 160 161 153 124 74 49 22 359 331 316 306 295 304 320 327 306 299 269 280 295 164 144 157 328 98 129 132 239 307 326 284 221 201 196
176 175 174 176 176 176 170 159 160 161 162 151 140 139 151 203 244 252 271 293 293 288 301 320 312 304 287 272 273 184 163 141 133 325 70 152 165 134 340 340 326 251 195
180 181 182 181 177 171 165 160 155 159 164 160 154 151 165 211 252 272 296 307 306 302 302 315 325 315 290 269 278 174 146 148 155 154 142 74 63 107 139 336 335 350 315
183 184 180 169 167 163 157 154 156 166 171 162 159 164 174 188 214 289 306 308 304 305 307 324 326 303 285 259 248 184 158 162 158 155 146 143 139 164 145 167 278 314 308
175 175 172 172 170 167 163 160 161 172 178 167 173 178 179 183 196 229 234 249 279 286 293 312 310 303 283 262 175 119 149 166 159 165 167 163 174 168 154 146 156 42 340
180 181 181 178 176 173 168 165 168 174 176 175 184 185 181 181 207 215 209 226 240 254 268 285 287 290 304 360 101 109 166 146 162 174 162 159 186 165 157 156 145 104 21
188 188 185 181 179 177 178 175 173 174 178 179 178 184 185 187 200 208 207 227 250 261 281 286 303 310 338 21 82 102 105 112 139 146 143 143 176 151 154 152 149 146 140
194 191 188 187 186 184 182 176 172 176 179 179 181 185 190 193 191 181 197 225 260 283 324 340 350 354 356 30 67 73 82 96 74 134 132 133 158 133 142 144 139 143 149
199 194 193 191 185 181 177 177 177 175 177 181 182 177 188 192 184 186 217 227 254 278 295 338 15 28 31 41 68 57 105 96 74 87 136 178 167 138 131 121 118 123 131
204 197 191 184 182 184 184 182 182 182 185 183 178 183 188 182 181 201 228 224 225 256 236 82 62 59 64 65 87 84 100 119 119 118 116 114 126 124 125 122 122 123 130
207 198 190 189 191 191 189 188 187 189 186 179 177 179 184 185 193 206 217 208 198 215 282 109 111 94 75 75 79 95 87 113 136 137 138 136 112 107 111 121 132 130 115
202 198 202 203 200 197 193 191 193 189 183 179 180 185 192 196 199 200 199 198 187 175 174 160 180 189 147 105 77 81 82 83 86 109 137 140 140 141 135 124 138 138 118
223 213 214 214 209 204 201 197 195 191 184 180 187 197 198 196 194 194 197 197 193 192 186 169 177 185 149 150 130 110 106 92 74 55 63 107 140 155 146 141 152 144 136
257 238 230 221 215 212 207 200 198 194 185 186 195 197 190 189 193 197 196 195 202 199 179 181 181 201 214 160 143 135 117 115 104 69 33 27 41 84 97 113 131 152 158
275 254 239 231 226 219 209 204 202 190 187 193 196 193 189 191 198 199 191 197 202 195 193 201 188 205 242 180 155 144 132 130 135 98 29 39 39 63 93 76 71 65 108
299 281 264 253 241 224 214 206 192 187 192 196 197 194 191 195 195 192 197 201 197 198 202 206 200 207 243 207 172 153 126 110 110 194 193 141 346 12 129 109 82 49 30
294 275 257 248 250 234 215 198 194 193 195 200 201 198 193 193 193 197 203 200 192 200 205 202 197 201 244 224 187 154 130 118 88 10 55 148 143 303 137 118 104 68 26
321 312 299 280 281 262 212 193 201 198 205 207 205 200 194 193 196 201 201 195 192 199 198 202 202 201 220 218 189 164 147 148 158 18 355 26 117 119 128 129 125 109 25
326 329 324 298 274 267 206 207 208 212 215 211 203 197 196 197 198 195 192 188 189 188 192 199 206 201 205 199 187 172 161 168 167 166 236 319 78 107 120 125 130 142 123
338 337 330 312 298 274 218 226 228 229 220 204 200 199 198 197 195 187 188 183 179 182 191 190 198 210 210 199 188 179 177 169 162 175 188 185 108 104 110 109 104 105 99
332 329 320 314 313 293 246 239 245 235 217 205 205 203 197 196 187 185 186 181 181 186 192 189 195 203 202 199 184 174 171 166 159 167 163 140 112 97 87 87 91 88 90
327 327 325 319 313 302 282 262 258 227 209 212 209 202 195 193 189 187 186 186 189 191 193 192 194 192 188 191 176 158 151 148 140 131 117 104 95 89 82 75 69 71 92
320 320 318 310 308 306 295 288 274 232 217 216 212 204 198 192 189 187 191 193 198 195 191 195 187 183 195 205 188 172 171 167 157 134 108 98 97 92 81 73 69 68 77
318 317 313 309 307 307 300 295 279 240 223 221 215 207 198 191 184 175 165 154 191 199 196 188 179 188 189 179 180 179 175 167 153 134 133 138 137 138 135 123 100 79 81
Height
1496 1499 1500 1502 1503 1504 1504 1505 1504 1504 1504 1503 1502 1501 1501 1499 1498 1497 1496 1494 1493 1491 1490 1489 1488 1487 1487 1486 1486 1486 1486 1487 1487 1488 1489 1490 1491 1493 1494 1496 1498 1500 1502
1495 1497 1499 1500 1501 1502 1503 1503 1503 1503 1502 1502 1501 1501 1500 1498 1497 1496 1495 1493 1492 1490 1489 1488 1487 1486 1485 1485 1484 1484 1485 1485 1486 1487 1487 1488 1490 1491 1492 1494 1496 1498 1500
1491 1494 1496 1498 1499 1500 1501 1501 1501 1501 1501 1501 1500 1500 1499 1498 1497 1495 1494 1492 1491 1489 1488 1487 1486 1485 1484 1483 1483 1483 1483 1484 1485 1486 1487 1488 1488 1489 1491 1492 1494 1496 1498
1489 1491 1493 1495 1497 1498 1499 1499 1500 1500 1500 1499 1499 1498 1498 1497 1496 1494 1493 1492 1490 1489 1487 1486 1485 1484 1483 1482 1482 1482 1482 1483 1483 1484 1486 1487 1488 1489 1490 1491 1492 1494 1496
1486 1489 1491 1493 1495 1496 1497 1498 1498 1498 1498 1498 1498 1497 1497 1496 1495 1494 1492 1491 1489 1488 1487 1485 1484 1483 1482 1481 1481 1481 1481 1482 1482 1483 1484 1486 1487 1488 1489 1489 1491 1492 1494
1485 1487 1489 1492 1493 1495 1495 1496 1496 1497 1497 1497 1496 1496 1496 1495 1494 1493 1491 1490 1489 1487 1486 1485 1483 1482 1481 1480 1480 1480 1480 1481 1482 1482 1483 1484 1486 1487 1488 1489 1489 1491 1492
1483 1485 1487 1489 1491 1492 1493 1494 1494 1495 1495 1495 1495 1495 1494 1494 1493 1492 1491 1490 1488 1487 1485 1484 1483 1482 1481 1480 1480 1479 1480 1480 1481 1481 1482 1483 1484 1486 1487 1488 1488 1489 1491
1481 1483 1484 1486 1488 1489 1491 1492 1492 1493 1493 1493 1494 1494 1493 1493 1492 1491 1490 1489 1488 1487 1485 1484 1483 1481 1481 1480 1480 1479 1479 1479 1480 1480 1481 1482 1483 1484 1485 1487 1488 1488 1489
1479 1480 1482 1484 1485 1487 1488 1489 1490 1491 1491 1492 1492 1492 1492 1492 1491 1491 1490 1489 1488 1486 1485 1484 1483 1482 1481 1480 1480 1479 1479 1479 1480 1480 1481 1481 1482 1483 1484 1485 1486 1488 1488
1477 1478 1480 1481 1483 1484 1486 1487 1488 1489 1489 1490 1490 1491 1491 1491 1490 1490 1489 1488 1487 1486 1485 1484 1483 1482 1481 1480 1480 1480 1479 1479 1479 1480 1480 1481 1482 1482 1483 1484 1485 1486 1487
1474 1475 1477 1479 1480 1482 1483 1485 1486 1487 1487 1488 1489 1489 1489 1489 1489 1489 1489 1488 1487 1486 1485 1484 1483 1482 1481 1481 1480 1480 1480 1479 1479 1480 1480 1481 1481 1482 1482 1483 1484 1485 1486
1472 1473 1474 1476 1478 1479 1480 1482 1483 1484 1485 1486 1486 1487 1488 1488 1488 1488 1488 1487 1487 1486 1485 1484 1483 1482 1482 1481 1481 1480 1480 1479 1479 1480 1480 1480 1481 1481 1482 1482 1483 1484 1484
1470 1471 1472 1473 1474 1476 1477 1478 1480 1481 1482 1483 1484 1485 1485 1486 1486 1486 1487 1486 1486 1485 1485 1484 1483 1483 1482 1482 1481 1481 1480 1480 1480 1480 1480 1480 1481 1481 1481 1482 1482 1483 1483
1468 1469 1469 1470 1472 1473 1474 1475 1476 1478 1479 1480 1481 1482 1483 1484 1485 1485 1485 1485 1485 1485 1484 1484 1483 1483 1482 1482 1481 1481 1480 1480 1480 1480 1480 1480 1481 1481 1481 1481 1481 1482 1483
1467 1467 1467 1468 1469 1470 1471 1472 1473 1475 1476 1477 1478 1479 1481 1482 1483 1483 1484 1484 1484 1484 1483 1483 1483 1483 1482 1482 1481 1481 1481 1480 1480 1480 1480 1480 1480 1480 1480 1481 1481 1481 1482
1466 1466 1466 1466 1466 1467 1467 1468 1470 1471 1473 1474 1475 1477 1478 1479 1480 1481 1482 1482 1482 1482 1482 1482 1482 1482 1481 1481 1481 1481 1480 1480 1480 1480 1480 1480 1480 1480 1480 1480 1480 1481 1481
1466 1465 1464 1463 1463 1463 1463 1464 1466 1467 1469 1470 1472 1473 1475 1476 1477 1478 1479 1480 1480 1480 1481 1481 1481 1481 1481 1481 1481 1480 1480 1480 1480 1480 1479 1479 1479 1479 1479 1479 1479 1480 1480
1464 1463 1461 1461 1460 1460 1460 1461 1462 1464 1465 1466 1468 1470 1471 1473 1474 1475 1476 1477 1478 1478 1479 1479 1479 1479 1479 1480 1480 1480 1480 1480 1479 1479 1479 1479 1479 1479 1479 1479 1479 1479 1479
1463 1462 1460 1459 1458 1457 1457 1457 1458 1459 1461 1462 1463 1465 1467 1469 1470 1472 1473 1474 1475 1476 1476 1477 1477 1477 1478 1478 1478 1478 1478 1478 1479 1479 1479 1478 1478 1478 1478 1478 1478 1478 1478
1462 1460 1458 1457 1455 1454 1454 1454 1454 1455 1456 1457 1459 1461 1463 1464 1466 1468 1469 1471 1472 1473 1474 1474 1475 1475 1475 1476 1476 1476 1476 1477 1477 1477 1477 1477 1477 1477 1477 1477 1477 1477 1477
1461 1458 1456 1454 1453 1452 1451 1450 1450 1451 1452 1453 1455 1456 1458 1460 1462 1464 1465 1467 1468 1469 1470 1471 1471 1472 1472 1473 1473 1474 1474 1474 1475 1475 1475 1475 1475 1475 1475 1476 1476 1476 1476
1458 1456 1453 1451 1450 1449 1448 1447 1446 1447 1448 1448 1449 1451 1453 1455 1457 1459 1460 1462 1464 1465 1466 1467 1467 1468 1469 1470 1470 1471 1472 1472 1472 1472 1472 1473 1473 1473 1473 1474 1474 1474 1475
1457 1454 1451 1448 1447 1445 1445 1443 1442 1443 1443 1443 1444 1445 1447 1450 1451 1453 1455 1457 1459 1460 1461 1462 1463 1464 1465 1466 1467 1468 1468 1469 1469 1470 1470 1470 1471 1471 1471 1472 1472 1473 1473
1454 1451 1448 1445 1442 1441 1440 1439 1438 1438 1438 1437 1438 1439 1441 1443 1445 1448 1450 1451 1453 1454 1456 1457 1458 1459 1461 1462 1463 1464 1465 1466 1467 1467 1468 1468 1469 1469 1469 1470 1470 1471 1471
1452 1448 1445 1442 1439 1436 1435 1434 1433 1432 1431 1431 1432 1433 1435 1436 1439 1441 1443 1445 1447 1449 1450 1452 1453 1455 1456 1458 1459 1461 1462 1463 1464 1465 1465 1466 1466 1467 1467 1468 1468 1469 1469
1448 1445 1441 1437 1434 1431 1429 1428 1427 1426 1425 1425 1426 1427 1428 1430 1432 1434 1436 1438 1441 1443 1445 1447 1449 1450 1453 1454 1456 1457 1458 1460 1461 1462 1462 1463 1464 1464 1465 1465 1466 1466 1467